Torna al catalogo

COSMOS 1934 DEB

AttivoPO
NORAD 22919·DEBRIS·🇷🇺 Russia

Lanciato Mar 22, 1988 da Plesetsk Cosmodrome

Loading…

Prossimi Passaggi (prossime 24 ore)

TLE

AggiornatoSource: Space-Track

Epoca: Sep 14, 2026, 09:29 UTC

1 22919U 88023D   26257.39517516  .00000636  00000-0  45756-3 0  9998
2 22919  82.9440 294.5292 0033548  50.7489 324.2146 13.95166563819815

Traccia COSMOS 1934 DEB in tempo reale con AllMySat

Download on the App Store